Location: Dobra
(49.7166°N, 20.2564°E)
Time: 00:49:36
(UTC+02:00)

ISS - Visible Passes

Search period start: 21 September 2018 00:00
Search period end: 01 October 2018 00:00
Orbit: 403 x 408 km, 51.6° (Epoch: 21 September)

Date Brightness Start Highest point End Pass type
(mag) Time Alt. Az. Time Alt. Az. Time Alt. Az.
22 Sep -1.9 20:27:31 10° SSW 20:28:51 19° SSW 20:28:51 19° SSW visible
23 Sep -2.2 19:36:21 10° S 19:38:45 19° SE 19:39:37 17° ESE visible
23 Sep -1.2 21:11:35 10° WSW 21:12:20 16° WSW 21:12:20 16° WSW visible
24 Sep -3.6 20:19:49 10° SW 20:22:54 52° SSE 20:22:54 52° SSE visible
25 Sep -3.0 19:28:13 10° SW 19:31:15 35° SSE 19:33:20 17° E visible
25 Sep -1.8 21:04:20 10° W 21:06:01 27° W 21:06:01 27° W visible
26 Sep -3.9 20:12:25 10° WSW 20:15:43 87° SSE 20:16:18 58° ENE visible
27 Sep -3.7 19:20:34 10° WSW 19:23:49 62° SSE 19:26:29 15° ENE visible
27 Sep -2.1 20:57:07 10° W 20:59:10 34° WNW 20:59:10 34° WNW visible
28 Sep -3.6 20:05:07 10° W 20:08:25 69° N 20:09:17 44° ENE visible
28 Sep -0.3 21:41:49 10° WNW 21:41:57 11° WNW 21:41:57 11° WNW visible
29 Sep -3.8 19:13:08 10° WSW 19:16:27 85° NNW 19:19:20 13° ENE visible
29 Sep -2.2 20:49:50 10° WNW 20:52:00 36° WNW 20:52:00 36° WNW visible
30 Sep -3.5 19:57:50 10° W 20:01:06 59° N 20:02:01 40° ENE visible
30 Sep -0.4 21:34:27 10° WNW 21:34:41 12° WNW 21:34:41 12° WNW visible
